Location: Sternwarte ZA, Rosenfeld-Brittheim
(48.2889°N, 8.6789°E)
Time: 18:02:15
(UTC+02:00)

ISS - Pass Details

Date: 23 May 2018
Orbit: 402 x 407 km, 51.6° (Epoch: 23 May)

Event Time Altitude Azimuth Distance (km) Brightness Sun altitude
Rises 00:35:08 0° 274° (W) 2,319 0.2 -20.4°
Reaches altitude 10° 00:37:16 10° 281° (W) 1,459 -0.8 -20.5°
Maximum altitude 00:40:26 45° 356° (N) 563 -2.7 -20.6°
Drops below altitude 10° 00:43:36 10° 71° (ENE) 1,459 -0.9 -20.7°
Sets 00:45:44 0° 77° (ENE) 2,319 0.1 -20.7°
